| time (UTC) | temp F | wind direction | speed MPH | gust MPH | rain 1hr in | rain 24hr in | rain mn in | humidity % | barometer mb |
| 20260510234024 | 58 | 0 | 0.0 | 0.0 | 0.00 | 0.22 | 0.04 | 89 | 1012.2 |
| 20260510233528 | 58 | 0 | 0.0 | 0.0 | 0.00 | 0.22 | 0.04 | 88 | 1012.2 |
| 20260510233042 | 58 | 0 | 0.0 | 2.0 | 0.00 | 0.22 | 0.04 | 87 | 1012.2 |
| 20260510232527 | 58 | 0 | 0.0 | 2.0 | 0.00 | 0.22 | 0.04 | 87 | 1012.3 |
| 20260510232024 | 58 | 259 | 0.0 | 2.0 | 0.03 | 0.22 | 0.04 | 87 | 1012.2 |
| 20260510231538 | 58 | 281 | 0.0 | 2.0 | 0.03 | 0.22 | 0.04 | 87 | 1012.2 |
| 20260510231024 | 58 | 170 | 0.0 | 1.0 | 0.03 | 0.22 | 0.04 | 86 | 1012.1 |
| 20260510230525 | 59 | 94 | 0.0 | 1.0 | 0.03 | 0.22 | 0.04 | 86 | 1012.1 |
| 20260510230037 | 59 | 0 | 0.0 | 1.0 | 0.03 | 0.22 | 0.04 | 86 | 1011.8 |
| 20260510225530 | 59 | 0 | 0.0 | 2.0 | 0.03 | 0.28 | 0.04 | 84 | 1011.7 |
| 20260510225027 | 59 | 84 | 0.0 | 2.0 | 0.03 | 0.28 | 0.04 | 85 | 1011.7 |
| 20260510224536 | 60 | 0 | 0.0 | 2.0 | 0.03 | 0.28 | 0.04 | 84 | 1011.7 |
| 20260510224026 | 60 | 7 | 0.0 | 3.0 | 0.03 | 0.28 | 0.04 | 83 | 1011.6 |
| 20260510223526 | 61 | 56 | 1.0 | 3.0 | 0.03 | 0.28 | 0.04 | 80 | 1011.6 |
| 20260510223043 | 62 | 39 | 0.0 | 10.0 | 0.03 | 0.28 | 0.04 | 79 | 1011.8 |
| 20260510222526 | 64 | 347 | 1.0 | 10.0 | 0.03 | 0.28 | 0.04 | 77 | 1011.8 |
| 20260510222026 | 65 | 280 | 0.0 | 1.0 | 0.00 | 0.25 | 0.01 | 71 | 1011.5 |
| 20260510221543 | 66 | 0 | 0.0 | 0.0 | 0.00 | 0.25 | 0.01 | 68 | 1011.0 |
| 20260510221026 | 66 | 0 | 0.0 | 3.0 | 0.00 | 0.25 | 0.01 | 67 | 1010.7 |
| 20260510220529 | 66 | 0 | 0.0 | 3.0 | 0.00 | 0.25 | 0.01 | 65 | 1010.6 |
| 20260510220040 | 67 | 30 | 0.0 | 3.0 | 0.00 | 0.25 | 0.01 | 64 | 1010.5 |
| 20260510215525 | 67 | 0 | 0.0 | 1.0 | 0.00 | 0.40 | 0.01 | 64 | 1010.3 |
| 20260510215026 | 67 | 162 | 0.0 | 1.0 | 0.00 | 0.40 | 0.01 | 62 | 1010.3 |
| 20260510214541 | 68 | 0 | 0.0 | 4.0 | 0.00 | 0.40 | 0.01 | 63 | 1010.2 |
| 20260510214024 | 68 | 0 | 0.0 | 4.0 | 0.00 | 0.40 | 0.01 | 62 | 1010.3 |
| 20260510213525 | 68 | 60 | 0.0 | 1.0 | 0.00 | 0.40 | 0.01 | 63 | 1010.2 |
| 20260510213048 | 68 | 0 | 0.0 | 6.0 | 0.00 | 0.40 | 0.01 | 62 | 1010.2 |
| 20260510212526 | 69 | 25 | 0.0 | 6.0 | 0.00 | 0.40 | 0.01 | 60 | 1010.3 |
| 20260510212026 | 69 | 358 | 1.0 | 7.0 | 0.00 | 0.40 | 0.01 | 59 | 1010.4 |
| 20260510211543 | 70 | 338 | 2.0 | 7.0 | 0.00 | 0.40 | 0.01 | 59 | 1010.5 |
| 20260510211026 | 71 | 338 | 1.0 | 3.0 | 0.00 | 0.40 | 0.01 | 56 | 1010.7 |
| 20260510210526 | 71 | 131 | 1.0 | 4.0 | 0.00 | 0.40 | 0.01 | 55 | 1010.3 |
| 20260510210042 | 71 | 220 | 0.0 | 5.0 | 0.00 | 0.40 | 0.01 | 58 | 1010.3 |
| 20260510205527 | 71 | 277 | 1.0 | 5.0 | 0.00 | 0.52 | 0.01 | 57 | 1010.2 |
| 20260510205024 | 71 | 215 | 1.0 | 7.0 | 0.00 | 0.52 | 0.01 | 55 | 1010.1 |
| 20260510204544 | 71 | 92 | 2.0 | 7.0 | 0.00 | 0.52 | 0.01 | 56 | 1010.1 |
| 20260510204024 | 71 | 97 | 1.0 | 5.0 | 0.00 | 0.52 | 0.01 | 57 | 1009.9 |
| 20260510203525 | 71 | 0 | 0.0 | 3.0 | 0.00 | 0.52 | 0.01 | 56 | 1010.0 |
| 20260510203036 | 71 | 111 | 1.0 | 3.0 | 0.00 | 0.52 | 0.01 | 56 | 1009.9 |
| 20260510202526 | 71 | 153 | 1.0 | 3.0 | 0.00 | 0.52 | 0.01 | 57 | 1010.0 |
| 20260510202027 | 71 | 117 | 0.0 | 3.0 | 0.00 | 0.52 | 0.01 | 56 | 1010.2 |
| 20260510201538 | 71 | 0 | 0.0 | 6.0 | 0.00 | 0.52 | 0.01 | 58 | 1010.1 |
| 20260510201025 | 70 | 260 | 0.0 | 6.0 | 0.00 | 0.52 | 0.01 | 58 | 1010.1 |
| 20260510200526 | 70 | 172 | 1.0 | 6.0 | 0.00 | 0.52 | 0.01 | 57 | 1010.1 |
| 20260510200041 | 70 | 0 | 1.0 | 6.0 | 0.00 | 0.52 | 0.01 | 59 | 1010.0 |
| 20260510195524 | 71 | 213 | 1.0 | 5.0 | 0.00 | 0.52 | 0.01 | 59 | 1010.0 |
| 20260510195025 | 71 | 270 | 1.0 | 6.0 | 0.00 | 0.52 | 0.01 | 58 | 1010.0 |
| 20260510194550 | 72 | 246 | 2.0 | 9.0 | 0.00 | 0.52 | 0.01 | 55 | 1010.1 |
| 20260510194027 | 72 | 172 | 3.0 | 9.0 | 0.00 | 0.52 | 0.01 | 56 | 1010.1 |
| 20260510193527 | 72 | 274 | 3.0 | 9.0 | 0.00 | 0.52 | 0.01 | 56 | 1010.2 |
| 20260510193040 | 72 | 214 | 2.0 | 8.0 | 0.00 | 0.52 | 0.01 | 55 | 1010.4 |
| 20260510192527 | 72 | 210 | 3.0 | 8.0 | 0.00 | 0.52 | 0.01 | 56 | 1010.3 |
| 20260510192023 | 73 | 167 | 2.0 | 8.0 | 0.00 | 0.52 | 0.01 | 58 | 1010.5 |
| 20260510191539 | 73 | 227 | 2.0 | 8.0 | 0.00 | 0.52 | 0.01 | 57 | 1010.6 |
| 20260510191027 | 73 | 281 | 3.0 | 7.0 | 0.00 | 0.52 | 0.01 | 57 | 1010.6 |
| 20260510190526 | 73 | 162 | 2.0 | 11.0 | 0.00 | 0.52 | 0.01 | 55 | 1010.6 |
| 20260510190047 | 73 | 295 | 2.0 | 11.0 | 0.00 | 0.52 | 0.01 | 56 | 1010.7 |
| 20260510185526 | 73 | 120 | 3.0 | 11.0 | 0.00 | 0.52 | 0.01 | 54 | 1010.8 |
| 20260510185026 | 73 | 168 | 2.0 | 7.0 | 0.00 | 0.52 | 0.01 | 54 | 1010.7 |
| 20260510184550 | 72 | 266 | 2.0 | 5.0 | 0.00 | 0.52 | 0.01 | 61 | 1010.6 |
| 20260510184024 | 72 | 205 | 3.0 | 10.0 | 0.00 | 0.52 | 0.01 | 56 | 1010.7 |
| 20260510183527 | 72 | 250 | 2.0 | 10.0 | 0.00 | 0.52 | 0.01 | 56 | 1010.8 |
| 20260510183039 | 72 | 270 | 3.0 | 10.0 | 0.00 | 0.52 | 0.01 | 56 | 1010.8 |
| 20260510182529 | 72 | 272 | 2.0 | 10.0 | 0.00 | 0.52 | 0.01 | 59 | 1010.9 |
| 20260510182026 | 72 | 288 | 3.0 | 10.0 | 0.00 | 0.52 | 0.01 | 56 | 1010.8 |
| 20260510181539 | 72 | 153 | 2.0 | 6.0 | 0.00 | 0.52 | 0.01 | 57 | 1010.9 |
| 20260510181026 | 73 | 200 | 2.0 | 8.0 | 0.00 | 0.52 | 0.01 | 59 | 1010.9 |
| 20260510180527 | 72 | 269 | 1.0 | 9.0 | 0.00 | 0.52 | 0.01 | 58 | 1010.9 |
| 20260510180035 | 72 | 257 | 2.0 | 9.0 | 0.00 | 0.52 | 0.01 | 59 | 1011.0 |
| 20260510175525 | 72 | 230 | 2.0 | 7.0 | 0.00 | 0.54 | 0.01 | 60 | 1011.1 |
| 20260510175024 | 71 | 210 | 1.0 | 6.0 | 0.00 | 0.54 | 0.01 | 62 | 1011.2 |
| 20260510174538 | 70 | 254 | 2.0 | 6.0 | 0.00 | 0.54 | 0.01 | 62 | 1011.2 |
| 20260510174027 | 70 | 282 | 1.0 | 6.0 | 0.00 | 0.54 | 0.01 | 61 | 1011.3 |
| 20260510173524 | 70 | 278 | 2.0 | 6.0 | 0.00 | 0.54 | 0.01 | 63 | 1011.3 |
| 20260510173041 | 69 | 264 | 2.0 | 6.0 | 0.00 | 0.54 | 0.01 | 62 | 1011.3 |
| 20260510172524 | 69 | 226 | 1.0 | 7.0 | 0.00 | 0.54 | 0.01 | 64 | 1011.3 |
| 20260510172024 | 69 | 217 | 1.0 | 7.0 | 0.00 | 0.54 | 0.01 | 65 | 1011.4 |
| 20260510171538 | 69 | 144 | 3.0 | 7.0 | 0.00 | 0.54 | 0.01 | 64 | 1011.5 |
| 20260510171024 | 69 | 260 | 1.0 | 6.0 | 0.00 | 0.54 | 0.01 | 63 | 1011.5 |
| 20260510170526 | 69 | 274 | 1.0 | 5.0 | 0.00 | 0.54 | 0.01 | 64 | 1011.6 |
| 20260510170038 | 69 | 266 | 1.0 | 6.0 | 0.00 | 0.54 | 0.01 | 63 | 1011.5 |
| 20260510165527 | 69 | 165 | 2.0 | 6.0 | 0.00 | 0.57 | 0.01 | 63 | 1011.7 |
| 20260510165027 | 69 | 215 | 2.0 | 8.0 | 0.00 | 0.57 | 0.01 | 63 | 1011.6 |
| 20260510164541 | 70 | 271 | 2.0 | 11.0 | 0.00 | 0.57 | 0.01 | 66 | 1011.5 |
| 20260510164023 | 69 | 303 | 3.0 | 11.0 | 0.00 | 0.57 | 0.01 | 63 | 1011.5 |
| 20260510163524 | 70 | 274 | 2.0 | 9.0 | 0.00 | 0.57 | 0.01 | 63 | 1011.5 |
| 20260510163046 | 69 | 94 | 2.0 | 9.0 | 0.00 | 0.57 | 0.01 | 67 | 1011.6 |
| 20260510162526 | 69 | 262 | 2.0 | 7.0 | 0.00 | 0.57 | 0.01 | 66 | 1011.6 |
| 20260510162023 | 69 | 279 | 2.0 | 6.0 | 0.00 | 0.57 | 0.01 | 66 | 1011.7 |
| 20260510161543 | 69 | 265 | 2.0 | 7.0 | 0.00 | 0.57 | 0.01 | 67 | 1011.7 |
| 20260510161028 | 68 | 225 | 1.0 | 8.0 | 0.00 | 0.57 | 0.01 | 66 | 1011.7 |
| 20260510160527 | 68 | 241 | 3.0 | 8.0 | 0.00 | 0.57 | 0.01 | 66 | 1011.7 |
| 20260510160043 | 68 | 86 | 2.0 | 6.0 | 0.00 | 0.57 | 0.01 | 68 | 1011.7 |
| 20260510155525 | 67 | 100 | 2.0 | 6.0 | 0.00 | 0.60 | 0.01 | 68 | 1011.8 |
| 20260510155025 | 67 | 278 | 1.0 | 6.0 | 0.00 | 0.60 | 0.01 | 67 | 1011.8 |
| 20260510154537 | 67 | 307 | 2.0 | 6.0 | 0.00 | 0.60 | 0.01 | 68 | 1011.8 |
| 20260510154027 | 66 | 105 | 2.0 | 7.0 | 0.00 | 0.60 | 0.01 | 70 | 1011.8 |
| 20260510153523 | 66 | 202 | 1.0 | 7.0 | 0.00 | 0.60 | 0.01 | 71 | 1011.8 |
| 20260510153036 | 66 | 123 | 2.0 | 6.0 | 0.00 | 0.60 | 0.01 | 71 | 1011.9 |
| 20260510152527 | 65 | 217 | 2.0 | 6.0 | 0.00 | 0.60 | 0.01 | 73 | 1012.0 |
| 20260510152025 | 65 | 146 | 3.0 | 5.0 | 0.00 | 0.60 | 0.01 | 71 | 1011.9 |
| 20260510151543 | 65 | 252 | 1.0 | 4.0 | 0.00 | 0.60 | 0.01 | 73 | 1012.0 |
| 20260510151026 | 64 | 213 | 1.0 | 4.0 | 0.00 | 0.60 | 0.01 | 76 | 1011.9 |
| 20260510150526 | 63 | 137 | 1.0 | 4.0 | 0.00 | 0.60 | 0.01 | 77 | 1011.9 |
| 20260510150109 | 63 | 149 | 2.0 | 4.0 | 0.00 | 0.60 | 0.01 | 76 | 1012.0 |
| 20260510145528 | 63 | 269 | 1.0 | 3.0 | 0.00 | 0.64 | 0.01 | 78 | 1011.9 |
| 20260510145026 | 62 | 174 | 0.0 | 6.0 | 0.00 | 0.64 | 0.01 | 80 | 1011.9 |
| 20260510144600 | 62 | 116 | 0.0 | 6.0 | 0.00 | 0.64 | 0.01 | 79 | 1012.0 |
| 20260510144024 | 62 | 162 | 2.0 | 6.0 | 0.00 | 0.64 | 0.01 | 77 | 1012.1 |
| 20260510143526 | 62 | 266 | 0.0 | 3.0 | 0.00 | 0.64 | 0.01 | 80 | 1012.3 |
| 20260510143039 | 61 | 246 | 1.0 | 3.0 | 0.00 | 0.64 | 0.01 | 81 | 1012.3 |
| 20260510142525 | 60 | 160 | 1.0 | 3.0 | 0.00 | 0.64 | 0.01 | 81 | 1012.3 |
| 20260510142026 | 60 | 0 | 0.0 | 2.0 | 0.00 | 0.64 | 0.01 | 81 | 1012.2 |
| 20260510141537 | 60 | 234 | 1.0 | 2.0 | 0.00 | 0.64 | 0.01 | 80 | 1012.3 |
| 20260510141027 | 60 | 166 | 0.0 | 3.0 | 0.00 | 0.64 | 0.01 | 81 | 1012.4 |
| 20260510140532 | 60 | 235 | 0.0 | 3.0 | 0.00 | 0.64 | 0.01 | 79 | 1012.4 |
| 20260510140046 | 61 | 173 | 1.0 | 4.0 | 0.00 | 0.64 | 0.01 | 79 | 1012.4 |
| 20260510135524 | 61 | 141 | 0.0 | 4.0 | 0.00 | 0.68 | 0.01 | 80 | 1012.3 |
| 20260510135026 | 61 | 143 | 2.0 | 4.0 | 0.00 | 0.68 | 0.01 | 78 | 1012.4 |
| 20260510134552 | 61 | 54 | 1.0 | 4.0 | 0.00 | 0.68 | 0.01 | 84 | 1012.3 |
| 20260510134026 | 59 | 189 | 1.0 | 4.0 | 0.00 | 0.68 | 0.01 | 82 | 1012.3 |
| 20260510133528 | 59 | 85 | 0.0 | 2.0 | 0.00 | 0.68 | 0.01 | 84 | 1012.2 |
| 20260510133045 | 59 | 250 | 0.0 | 2.0 | 0.00 | 0.68 | 0.01 | 85 | 1012.3 |
| 20260510132527 | 58 | 260 | 0.0 | 2.0 | 0.00 | 0.68 | 0.01 | 86 | 1012.3 |
| 20260510132025 | 57 | 118 | 0.0 | 2.0 | 0.00 | 0.68 | 0.01 | 89 | 1012.2 |
| 20260510131543 | 56 | 224 | 0.0 | 2.0 | 0.00 | 0.68 | 0.01 | 90 | 1012.2 |
| 20260510131027 | 55 | 157 | 0.0 | 4.0 | 0.00 | 0.68 | 0.01 | 91 | 1012.2 |
| 20260510130526 | 55 | 131 | 0.0 | 4.0 | 0.00 | 0.68 | 0.01 | 92 | 1012.2 |
| 20260510130039 | 54 | 269 | 1.0 | 4.0 | 0.00 | 0.68 | 0.01 | 92 | 1012.4 |
| 20260510125525 | 54 | 216 | 0.0 | 3.0 | 0.00 | 0.69 | 0.01 | 93 | 1012.3 |
| 20260510125026 | 54 | 277 | 0.0 | 3.0 | 0.00 | 0.69 | 0.01 | 93 | 1012.3 |
| 20260510124537 | 54 | 316 | 0.0 | 1.0 | 0.00 | 0.69 | 0.01 | 94 | 1012.3 |
| 20260510124025 | 53 | 182 | 0.0 | 2.0 | 0.00 | 0.69 | 0.01 | 94 | 1012.2 |
| 20260510123525 | 53 | 0 | 0.0 | 2.0 | 0.00 | 0.69 | 0.01 | 94 | 1012.3 |
| 20260510123035 | 53 | 0 | 0.0 | 2.0 | 0.00 | 0.69 | 0.01 | 94 | 1012.4 |
| 20260510122523 | 53 | 306 | 0.0 | 2.0 | 0.00 | 0.69 | 0.01 | 95 | 1012.3 |
| 20260510122025 | 53 | 200 | 0.0 | 3.0 | 0.00 | 0.69 | 0.01 | 95 | 1012.3 |
| 20260510121542 | 53 | 0 | 0.0 | 4.0 | 0.00 | 0.69 | 0.01 | 95 | 1012.3 |
| 20260510121026 | 53 | 236 | 1.0 | 4.0 | 0.00 | 0.69 | 0.01 | 95 | 1012.1 |
| 20260510120526 | 53 | 137 | 1.0 | 3.0 | 0.00 | 0.69 | 0.01 | 96 | 1012.2 |
| 20260510120039 | 53 | 278 | 0.0 | 3.0 | 0.00 | 0.69 | 0.01 | 96 | 1012.2 |
| 20260510115526 | 53 | 277 | 0.0 | 3.0 | 0.00 | 0.69 | 0.01 | 96 | 1012.2 |
| 20260510115028 | 52 | 0 | 0.0 | 1.0 | 0.00 | 0.69 | 0.01 | 96 | 1012.2 |
| 20260510114602 | 52 | 141 | 0.0 | 1.0 | 0.00 | 0.69 | 0.01 | 96 | 1012.2 |
| 20260510114026 | 52 | 170 | 0.0 | 2.0 | 0.00 | 0.69 | 0.01 | 97 | 1012.1 |
| 20260510113528 | 52 | 125 | 0.0 | 2.0 | 0.00 | 0.69 | 0.01 | 97 | 1012.2 |
| 20260510113051 | 52 | 329 | 0.0 | 1.0 | 0.00 | 0.69 | 0.01 | 96 | 1012.3 |
| 20260510112525 | 52 | 328 | 0.0 | 1.0 | 0.00 | 0.69 | 0.01 | 97 | 1012.3 |
| 20260510112025 | 51 | 0 | 0.0 | 2.0 | 0.00 | 0.69 | 0.01 | 97 | 1012.2 |
| 20260510111542 | 51 | 0 | 0.0 | 2.0 | 0.00 | 0.69 | 0.01 | 97 | 1011.9 |
| 20260510111025 | 52 | 255 | 0.0 | 1.0 | 0.00 | 0.69 | 0.01 | 97 | 1011.9 |
| 20260510110528 | 51 | 0 | 0.0 | 1.0 | 0.00 | 0.69 | 0.01 | 97 | 1011.7 |
| 20260510110042 | 51 | 0 | 0.0 | 1.0 | 0.00 | 0.69 | 0.01 | 97 | 1011.7 |
| 20260510105525 | 51 | 97 | 0.0 | 1.0 | 0.00 | 0.69 | 0.01 | 97 | 1011.6 |
| 20260510105024 | 51 | 0 | 0.0 | 1.0 | 0.00 | 0.69 | 0.01 | 97 | 1011.7 |
| 20260510104543 | 50 | 0 | 0.0 | 1.0 | 0.00 | 0.69 | 0.01 | 97 | 1011.7 |
| 20260510104024 | 49 | 262 | 0.0 | 1.0 | 0.00 | 0.69 | 0.01 | 97 | 1011.5 |
| 20260510103526 | 49 | 150 | 0.0 | 1.0 | 0.00 | 0.69 | 0.01 | 97 | 1011.4 |
| 20260510103038 | 49 | 0 | 0.0 | 1.0 | 0.00 | 0.69 | 0.01 | 97 | 1011.4 |
| 20260510102530 | 49 | 0 | 0.0 | 1.0 | 0.00 | 0.69 | 0.01 | 97 | 1011.6 |
| 20260510102028 | 49 | 0 | 0.0 | 1.0 | 0.00 | 0.69 | 0.01 | 97 | 1011.6 |
| 20260510101537 | 48 | 0 | 0.0 | 1.0 | 0.00 | 0.69 | 0.01 | 97 | 1011.6 |
| 20260510101031 | 49 | 0 | 0.0 | 1.0 | 0.00 | 0.69 | 0.01 | 97 | 1011.6 |
| 20260510100529 | 49 | 0 | 0.0 | 1.0 | 0.00 | 0.69 | 0.01 | 97 | 1011.7 |
| 20260510100057 | 48 | 0 | 0.0 | 1.0 | 0.00 | 0.69 | 0.01 | 97 | 1011.6 |
| 20260510095530 | 48 | 0 | 0.0 | 1.0 | 0.00 | 0.69 | 0.01 | 97 | 1011.6 |
| 20260510095027 | 48 | 0 | 0.0 | 0.0 | 0.00 | 0.69 | 0.01 | 97 | 1011.8 |
| 20260510094540 | 48 | 0 | 0.0 | 0.0 | 0.00 | 0.69 | 0.01 | 97 | 1011.8 |
| 20260510094026 | 48 | 0 | 0.0 | 0.0 | 0.00 | 0.69 | 0.01 | 97 | 1011.7 |
| 20260510093529 | 48 | 0 | 0.0 | 0.0 | 0.00 | 0.69 | 0.01 | 97 | 1011.6 |
| 20260510093038 | 48 | 0 | 0.0 | 0.0 | 0.00 | 0.69 | 0.01 | 97 | 1011.6 |
| 20260510092529 | 48 | 0 | 0.0 | 0.0 | 0.00 | 0.69 | 0.01 | 97 | 1011.5 |
| 20260510092029 | 47 | 0 | 0.0 | 0.0 | 0.00 | 0.69 | 0.01 | 97 | 1011.6 |
| 20260510091537 | 47 | 0 | 0.0 | 0.0 | 0.00 | 0.69 | 0.01 | 97 | 1011.5 |
| 20260510091028 | 47 | 0 | 0.0 | 0.0 | 0.00 | 0.69 | 0.01 | 97 | 1011.4 |
| 20260510090528 | 47 | 0 | 0.0 | 0.0 | 0.00 | 0.69 | 0.01 | 97 | 1011.4 |
| 20260510090038 | 47 | 0 | 0.0 | 0.0 | 0.00 | 0.69 | 0.01 | 97 | 1011.3 |
| 20260510085527 | 46 | 0 | 0.0 | 0.0 | 0.00 | 0.69 | 0.01 | 97 | 1011.3 |
| 20260510085028 | 46 | 0 | 0.0 | 0.0 | 0.00 | 0.69 | 0.01 | 97 | 1011.3 |
| 20260510084542 | 46 | 0 | 0.0 | 0.0 | 0.00 | 0.69 | 0.01 | 96 | 1011.3 |
| 20260510084028 | 46 | 0 | 0.0 | 0.0 | 0.00 | 0.69 | 0.01 | 96 | 1011.3 |
| 20260510083527 | 46 | 0 | 0.0 | 0.0 | 0.00 | 0.69 | 0.01 | 96 | 1011.2 |
| 20260510083043 | 47 | 0 | 0.0 | 0.0 | 0.00 | 0.69 | 0.01 | 96 | 1011.2 |
| 20260510082529 | 47 | 0 | 0.0 | 0.0 | 0.00 | 0.69 | 0.01 | 97 | 1011.0 |
| 20260510082028 | 47 | 0 | 0.0 | 0.0 | 0.01 | 0.69 | 0.01 | 97 | 1011.2 |
| 20260510081539 | 47 | 0 | 0.0 | 0.0 | 0.01 | 0.69 | 0.01 | 97 | 1011.1 |
| 20260510081026 | 47 | 0 | 0.0 | 0.0 | 0.01 | 0.69 | 0.01 | 97 | 1011.0 |
| 20260510080525 | 47 | 0 | 0.0 | 0.0 | 0.01 | 0.69 | 0.01 | 97 | 1011.0 |
| 20260510080038 | 47 | 0 | 0.0 | 0.0 | 0.01 | 0.69 | 0.01 | 97 | 1011.0 |
| 20260510075532 | 47 | 0 | 0.0 | 0.0 | 0.01 | 0.69 | 0.01 | 96 | 1010.9 |
| 20260510075028 | 47 | 0 | 0.0 | 0.0 | 0.01 | 0.69 | 0.01 | 96 | 1010.9 |
| 20260510074543 | 47 | 0 | 0.0 | 0.0 | 0.01 | 0.69 | 0.01 | 96 | 1011.0 |
| 20260510074028 | 47 | 0 | 0.0 | 0.0 | 0.01 | 0.69 | 0.01 | 96 | 1010.9 |
| 20260510073525 | 47 | 0 | 0.0 | 1.0 | 0.01 | 0.69 | 0.01 | 96 | 1010.9 |
| 20260510073048 | 48 | 0 | 0.0 | 1.0 | 0.01 | 0.69 | 0.01 | 96 | 1010.9 |
| 20260510072528 | 48 | 0 | 0.0 | 1.0 | 0.01 | 0.69 | 0.01 | 96 | 1010.9 |
| 20260510072029 | 48 | 0 | 0.0 | 1.0 | 0.00 | 0.68 | 0.00 | 96 | 1010.8 |
| 20260510071542 | 49 | 0 | 0.0 | 1.0 | 0.00 | 0.68 | 0.00 | 96 | 1010.7 |
| 20260510071026 | 49 | 0 | 0.0 | 1.0 | 0.00 | 0.68 | 0.00 | 96 | 1010.7 |
| 20260510070526 | 49 | 0 | 0.0 | 0.0 | 0.00 | 0.68 | 0.00 | 96 | 1010.8 |
| 20260510070052 | 49 | 0 | 0.0 | 0.0 | 0.00 | 0.68 | 0.00 | 96 | 1010.7 |
| 20260510065526 | 49 | 0 | 0.0 | 1.0 | 0.00 | 0.68 | 0.00 | 96 | 1010.4 |
| 20260510065025 | 49 | 0 | 0.0 | 1.0 | 0.00 | 0.68 | 0.00 | 96 | 1010.4 |
| 20260510064543 | 49 | 0 | 0.0 | 1.0 | 0.00 | 0.68 | 0.00 | 96 | 1010.6 |
| 20260510064025 | 49 | 0 | 0.0 | 0.0 | 0.00 | 0.68 | 0.00 | 96 | 1011.0 |
| 20260510063528 | 49 | 0 | 0.0 | 0.0 | 0.00 | 0.68 | 0.00 | 96 | 1010.9 |
| 20260510063042 | 50 | 0 | 0.0 | 0.0 | 0.00 | 0.68 | 0.00 | 96 | 1010.9 |
| 20260510062526 | 50 | 0 | 0.0 | 0.0 | 0.00 | 0.68 | 0.00 | 96 | 1010.9 |
| 20260510062025 | 50 | 0 | 0.0 | 0.0 | 0.00 | 0.68 | 0.00 | 96 | 1011.0 |
| 20260510061538 | 50 | 0 | 0.0 | 0.0 | 0.00 | 0.68 | 0.00 | 96 | 1011.0 |
| 20260510061026 | 50 | 0 | 0.0 | 1.0 | 0.00 | 0.68 | 0.00 | 96 | 1011.1 |
| 20260510060526 | 50 | 0 | 0.0 | 1.0 | 0.00 | 0.68 | 0.00 | 96 | 1011.1 |
| 20260510060042 | 50 | 0 | 0.0 | 0.0 | 0.00 | 0.68 | 0.00 | 96 | 1010.9 |
| 20260510055526 | 50 | 0 | 0.0 | 0.0 | 0.00 | 0.68 | 0.00 | 96 | 1010.8 |
| 20260510055024 | 50 | 0 | 0.0 | 0.0 | 0.00 | 0.68 | 0.00 | 96 | 1011.1 |
| 20260510054542 | 49 | 0 | 0.0 | 0.0 | 0.00 | 0.68 | 0.00 | 96 | 1011.2 |
| 20260510054027 | 49 | 0 | 0.0 | 0.0 | 0.00 | 0.68 | 0.00 | 96 | 1011.2 |
| 20260510053524 | 49 | 0 | 0.0 | 0.0 | 0.00 | 0.68 | 0.00 | 96 | 1011.1 |
| 20260510053036 | 49 | 0 | 0.0 | 0.0 | 0.00 | 0.68 | 0.00 | 96 | 1011.2 |
| 20260510052526 | 49 | 0 | 0.0 | 0.0 | 0.00 | 0.68 | 0.00 | 96 | 1011.4 |
| 20260510052023 | 49 | 0 | 0.0 | 0.0 | 0.00 | 0.68 | 0.00 | 96 | 1011.3 |
| 20260510051539 | 50 | 0 | 0.0 | 0.0 | 0.00 | 0.68 | 0.00 | 96 | 1011.3 |
| 20260510051026 | 50 | 0 | 0.0 | 0.0 | 0.00 | 0.68 | 0.00 | 96 | 1011.3 |
| 20260510050526 | 50 | 0 | 0.0 | 0.0 | 0.00 | 0.68 | 0.00 | 96 | 1011.3 |
| 20260510050041 | 50 | 0 | 0.0 | 0.0 | 0.00 | 0.68 | 0.00 | 96 | 1011.4 |
| 20260510045531 | 50 | 0 | 0.0 | 0.0 | 0.00 | 0.68 | 0.00 | 96 | 1011.3 |
| 20260510045026 | 50 | 0 | 0.0 | 0.0 | 0.00 | 0.68 | 0.00 | 96 | 1011.3 |
| 20260510044540 | 49 | 0 | 0.0 | 0.0 | 0.00 | 0.68 | 0.00 | 96 | 1011.4 |
| 20260510044026 | 49 | 0 | 0.0 | 0.0 | 0.00 | 0.68 | 0.00 | 96 | 1011.5 |
| 20260510043526 | 49 | 0 | 0.0 | 0.0 | 0.00 | 0.68 | 0.00 | 96 | 1011.6 |
| 20260510043037 | 49 | 0 | 0.0 | 0.0 | 0.00 | 0.68 | 0.00 | 96 | 1011.6 |
| 20260510042529 | 49 | 0 | 0.0 | 0.0 | 0.00 | 0.68 | 0.00 | 96 | 1011.6 |
| 20260510042025 | 49 | 0 | 0.0 | 0.0 | 0.00 | 0.68 | 0.00 | 96 | 1011.3 |
| 20260510041547 | 49 | 0 | 0.0 | 0.0 | 0.00 | 0.68 | 0.00 | 96 | 1011.5 |
| 20260510041026 | 49 | 0 | 0.0 | 1.0 | 0.00 | 0.68 | 0.00 | 96 | 1011.4 |
| 20260510040526 | 49 | 0 | 0.0 | 1.0 | 0.00 | 0.68 | 0.00 | 96 | 1011.3 |
| 20260510040038 | 50 | 0 | 0.0 | 0.0 | 0.00 | 0.68 | 0.00 | 96 | 1010.9 |
| 20260510035525 | 50 | 0 | 0.0 | 0.0 | 0.00 | 0.68 | 0.68 | 96 | 1011.2 |
| 20260510035028 | 50 | 0 | 0.0 | 0.0 | 0.00 | 0.68 | 0.68 | 96 | 1011.3 |
| 20260510034545 | 50 | 0 | 0.0 | 0.0 | 0.00 | 0.68 | 0.68 | 96 | 1011.4 |
| 20260510034025 | 50 | 0 | 0.0 | 0.0 | 0.00 | 0.68 | 0.68 | 96 | 1011.3 |
| 20260510033524 | 50 | 0 | 0.0 | 0.0 | 0.00 | 0.68 | 0.68 | 96 | 1011.3 |
| 20260510033048 | 50 | 0 | 0.0 | 1.0 | 0.00 | 0.68 | 0.68 | 96 | 1011.4 |
| 20260510032526 | 50 | 0 | 0.0 | 1.0 | 0.00 | 0.68 | 0.68 | 96 | 1011.4 |
| 20260510032027 | 50 | 0 | 0.0 | 1.0 | 0.00 | 0.68 | 0.68 | 96 | 1011.6 |
| 20260510031538 | 50 | 0 | 0.0 | 1.0 | 0.00 | 0.68 | 0.68 | 96 | 1011.8 |
| 20260510031026 | 50 | 0 | 0.0 | 0.0 | 0.00 | 0.68 | 0.68 | 96 | 1011.9 |
| 20260510030526 | 50 | 0 | 0.0 | 0.0 | 0.00 | 0.68 | 0.68 | 96 | 1011.9 |
| 20260510030038 | 50 | 0 | 0.0 | 0.0 | 0.00 | 0.68 | 0.68 | 96 | 1011.9 |
| 20260510025528 | 50 | 0 | 0.0 | 0.0 | 0.00 | 0.68 | 0.68 | 96 | 1011.9 |
| 20260510025026 | 50 | 0 | 0.0 | 0.0 | 0.00 | 0.68 | 0.68 | 96 | 1012.0 |
| 20260510024545 | 50 | 0 | 0.0 | 0.0 | 0.00 | 0.68 | 0.68 | 96 | 1012.1 |
| 20260510024026 | 50 | 0 | 0.0 | 0.0 | 0.00 | 0.68 | 0.68 | 96 | 1012.1 |
| 20260510023526 | 50 | 0 | 0.0 | 0.0 | 0.00 | 0.68 | 0.68 | 96 | 1012.2 |
| 20260510023039 | 50 | 0 | 0.0 | 0.0 | 0.00 | 0.68 | 0.68 | 96 | 1012.1 |
| 20260510022528 | 50 | 0 | 0.0 | 0.0 | 0.00 | 0.68 | 0.68 | 96 | 1012.1 |
| 20260510022026 | 50 | 0 | 0.0 | 0.0 | 0.00 | 0.68 | 0.68 | 96 | 1012.1 |
| 20260510021541 | 50 | 0 | 0.0 | 0.0 | 0.00 | 0.68 | 0.68 | 96 | 1012.1 |
| 20260510021023 | 50 | 0 | 0.0 | 0.0 | 0.00 | 0.68 | 0.68 | 96 | 1012.0 |
| 20260510020526 | 50 | 0 | 0.0 | 1.0 | 0.00 | 0.68 | 0.68 | 96 | 1012.1 |
| 20260510020036 | 50 | 0 | 0.0 | 1.0 | 0.00 | 0.68 | 0.68 | 96 | 1012.2 |
| 20260510015527 | 50 | 0 | 0.0 | 1.0 | 0.00 | 0.68 | 0.68 | 96 | 1012.2 |
| 20260510015026 | 50 | 0 | 0.0 | 1.0 | 0.00 | 0.68 | 0.68 | 96 | 1012.2 |
| 20260510014544 | 50 | 0 | 0.0 | 1.0 | 0.00 | 0.68 | 0.68 | 96 | 1012.2 |
| 20260510014026 | 50 | 0 | 0.0 | 1.0 | 0.00 | 0.68 | 0.68 | 96 | 1012.2 |
| 20260510013526 | 50 | 0 | 0.0 | 1.0 | 0.00 | 0.68 | 0.68 | 96 | 1012.2 |
| 20260510013042 | 49 | 0 | 0.0 | 2.0 | 0.00 | 0.68 | 0.68 | 96 | 1012.2 |
| 20260510012527 | 49 | 0 | 0.0 | 2.0 | 0.01 | 0.68 | 0.68 | 96 | 1012.2 |
| 20260510012026 | 49 | 0 | 0.0 | 0.0 | 0.01 | 0.68 | 0.68 | 96 | 1012.0 |
| 20260510011539 | 48 | 0 | 0.0 | 0.0 | 0.02 | 0.68 | 0.68 | 96 | 1011.9 |
| 20260510011025 | 48 | 0 | 0.0 | 0.0 | 0.03 | 0.68 | 0.68 | 95 | 1011.8 |
| 20260510010525 | 48 | 0 | 0.0 | 0.0 | 0.03 | 0.68 | 0.68 | 95 | 1011.7 |
| 20260510010036 | 48 | 0 | 0.0 | 1.0 | 0.05 | 0.68 | 0.68 | 96 | 1011.7 |
| 20260510005527 | 48 | 0 | 0.0 | 1.0 | 0.06 | 0.68 | 0.68 | 95 | 1011.7 |
| 20260510005025 | 48 | 153 | 0.0 | 1.0 | 0.07 | 0.68 | 0.68 | 95 | 1011.7 |
| 20260510004536 | 48 | 153 | 0.0 | 2.0 | 0.09 | 0.68 | 0.68 | 95 | 1011.7 |
| 20260510004025 | 48 | 153 | 0.0 | 2.0 | 0.10 | 0.68 | 0.68 | 95 | 1011.9 |
| 20260510003528 | 48 | 352 | 0.0 | 2.0 | 0.11 | 0.68 | 0.68 | 95 | 1011.9 |
| 20260510003053 | 48 | 267 | 0.0 | 2.0 | 0.13 | 0.68 | 0.68 | 95 | 1012.0 |
| 20260510002525 | 48 | 0 | 0.0 | 2.0 | 0.13 | 0.67 | 0.67 | 95 | 1011.9 |
| 20260510002023 | 48 | 0 | 0.0 | 2.0 | 0.14 | 0.67 | 0.67 | 95 | 1011.9 |
| 20260510001544 | 48 | 159 | 0.0 | 2.0 | 0.15 | 0.66 | 0.66 | 95 | 1011.9 |
| 20260510001027 | 47 | 141 | 1.0 | 2.0 | 0.14 | 0.65 | 0.65 | 95 | 1012.0 |
| 20260510000526 | 47 | 144 | 0.0 | 1.0 | 0.14 | 0.64 | 0.64 | 95 | 1012.2 |
| 20260510000048 | 47 | 0 | 0.0 | 1.0 | 0.13 | 0.63 | 0.63 | 95 | 1012.4 |
| 20260509235525 | 47 | 151 | 0.0 | 1.0 | 0.13 | 0.62 | 0.62 | 95 | 1012.3 |
| 20260509235032 | 47 | 0 | 0.0 | 1.0 | 0.12 | 0.60 | 0.60 | 95 | 1012.2 |
| 20260509234545 | 47 | 0 | 0.0 | 1.0 | 0.11 | 0.58 | 0.58 | 95 | 1012.2 |